| time (UTC) | temp F | wind direction | speed MPH | gust MPH | rain 1hr in | rain 24hr in | rain mn in | humidity % | barometer mb |
| 20260901104650 | 78 | 178 | 0.0 | 2.0 | 0.00 | 0.00 | 0.00 | 81 | 1016.1 |
| 20260901104148 | 78 | 178 | 0.0 | 2.0 | 0.00 | 0.00 | 0.00 | 81 | 1016.0 |
| 20260901103644 | 78 | 177 | 0.0 | 2.0 | 0.00 | 0.00 | 0.00 | 81 | 1016.0 |
| 20260901103144 | 78 | 176 | 0.0 | 0.0 | 0.00 | 0.00 | 0.00 | 80 | 1016.0 |
| 20260901102644 | 79 | 177 | 0.0 | 0.0 | 0.00 | 0.00 | 0.00 | 80 | 1016.0 |
| 20260901102144 | 79 | 177 | 0.0 | 2.0 | 0.00 | 0.00 | 0.00 | 80 | 1016.2 |
| 20260901101918 | 79 | 177 | 0.0 | 2.0 | 0.00 | 0.00 | 0.00 | 80 | 1016.1 |
| 20260901101412 | 79 | 177 | 0.0 | 1.0 | 0.00 | 0.00 | 0.00 | 80 | 1016.1 |
| 20260901100911 | 79 | 177 | 0.0 | 1.0 | 0.00 | 0.00 | 0.00 | 80 | 1016.1 |
| 20260901100141 | 79 | 177 | 0.0 | 1.0 | 0.00 | 0.00 | 0.00 | 79 | 1016.1 |
| 20260901095640 | 79 | 177 | 0.0 | 2.0 | 0.00 | 0.00 | 0.00 | 79 | 1016.1 |
| 20260901095142 | 79 | 177 | 0.0 | 2.0 | 0.00 | 0.00 | 0.00 | 79 | 1016.1 |
| 20260901094642 | 79 | 177 | 0.0 | 2.0 | 0.00 | 0.00 | 0.00 | 79 | 1016.2 |
| 20260901094140 | 79 | 177 | 0.0 | 3.0 | 0.00 | 0.00 | 0.00 | 79 | 1016.3 |
| 20260901093642 | 79 | 177 | 1.0 | 3.0 | 0.00 | 0.00 | 0.00 | 79 | 1016.4 |
| 20260901093142 | 79 | 176 | 1.0 | 3.0 | 0.00 | 0.00 | 0.00 | 79 | 1016.4 |
| 20260901092638 | 80 | 176 | 2.0 | 3.0 | 0.00 | 0.00 | 0.00 | 78 | 1016.5 |
| 20260901092138 | 80 | 176 | 1.0 | 3.0 | 0.00 | 0.00 | 0.00 | 78 | 1016.4 |
| 20260901091908 | 80 | 176 | 0.0 | 2.0 | 0.00 | 0.00 | 0.00 | 78 | 1016.4 |
| 20260901091136 | 80 | 176 | 1.0 | 3.0 | 0.00 | 0.00 | 0.00 | 78 | 1016.4 |
| 20260901090637 | 80 | 176 | 1.0 | 3.0 | 0.00 | 0.00 | 0.00 | 78 | 1016.2 |
| 20260901090136 | 80 | 176 | 1.0 | 3.0 | 0.00 | 0.00 | 0.00 | 77 | 1016.2 |
| 20260901085637 | 80 | 177 | 1.0 | 3.0 | 0.00 | 0.00 | 0.00 | 77 | 1016.2 |
| 20260901085137 | 80 | 177 | 1.0 | 3.0 | 0.00 | 0.00 | 0.00 | 77 | 1016.2 |
| 20260901084909 | 80 | 177 | 1.0 | 3.0 | 0.00 | 0.00 | 0.00 | 77 | 1016.1 |
| 20260901084136 | 80 | 177 | 1.0 | 4.0 | 0.00 | 0.00 | 0.00 | 76 | 1016.0 |
| 20260901083636 | 80 | 177 | 1.0 | 4.0 | 0.00 | 0.00 | 0.00 | 76 | 1016.1 |
| 20260901083136 | 80 | 177 | 1.0 | 4.0 | 0.00 | 0.00 | 0.00 | 76 | 1016.1 |
| 20260901082636 | 80 | 177 | 1.0 | 4.0 | 0.00 | 0.00 | 0.00 | 76 | 1016.1 |
| 20260901082137 | 81 | 178 | 1.0 | 3.0 | 0.00 | 0.00 | 0.00 | 75 | 1016.1 |
| 20260901081636 | 81 | 177 | 2.0 | 3.0 | 0.00 | 0.00 | 0.00 | 75 | 1016.1 |
| 20260901081136 | 81 | 178 | 2.0 | 4.0 | 0.00 | 0.00 | 0.00 | 75 | 1016.1 |
| 20260901080633 | 81 | 178 | 2.0 | 4.0 | 0.00 | 0.00 | 0.00 | 74 | 1016.0 |
| 20260901080132 | 81 | 178 | 2.0 | 5.0 | 0.00 | 0.00 | 0.00 | 74 | 1016.2 |
| 20260901075632 | 81 | 178 | 2.0 | 5.0 | 0.00 | 0.00 | 0.00 | 74 | 1016.1 |
| 20260901075130 | 81 | 181 | 2.0 | 4.0 | 0.00 | 0.00 | 0.00 | 73 | 1016.2 |
| 20260901074632 | 81 | 184 | 1.0 | 5.0 | 0.00 | 0.00 | 0.00 | 73 | 1016.1 |
| 20260901074130 | 81 | 185 | 1.0 | 5.0 | 0.00 | 0.00 | 0.00 | 73 | 1016.2 |
| 20260901073629 | 82 | 185 | 1.0 | 3.0 | 0.00 | 0.00 | 0.00 | 73 | 1016.2 |
| 20260901073127 | 82 | 185 | 0.0 | 3.0 | 0.00 | 0.00 | 0.00 | 72 | 1016.3 |
| 20260901072627 | 82 | 185 | 0.0 | 1.0 | 0.00 | 0.00 | 0.00 | 72 | 1016.2 |
| 20260901072121 | 82 | 185 | 0.0 | 2.0 | 0.00 | 0.00 | 0.00 | 72 | 1016.2 |
| 20260901071614 | 82 | 185 | 1.0 | 3.0 | 0.00 | 0.00 | 0.00 | 72 | 1016.2 |
| 20260901071109 | 82 | 185 | 1.0 | 3.0 | 0.00 | 0.00 | 0.00 | 72 | 1016.1 |
| 20260901070603 | 82 | 185 | 1.0 | 3.0 | 0.00 | 0.00 | 0.00 | 71 | 1016.2 |
| 20260901070056 | 82 | 185 | 1.0 | 3.0 | 0.00 | 0.00 | 0.00 | 71 | 1016.2 |
| 20260901065551 | 82 | 185 | 2.0 | 4.0 | 0.00 | 0.00 | 0.00 | 71 | 1016.2 |
| 20260901065045 | 82 | 186 | 2.0 | 6.0 | 0.00 | 0.00 | 0.00 | 70 | 1016.2 |
| 20260901064811 | 83 | 186 | 2.0 | 6.0 | 0.00 | 0.00 | 0.00 | 70 | 1016.3 |
| 20260901064033 | 83 | 147 | 1.0 | 5.0 | 0.00 | 0.00 | 0.00 | 70 | 1016.2 |
| 20260901063527 | 83 | 147 | 2.0 | 4.0 | 0.00 | 0.00 | 0.00 | 69 | 1016.2 |
| 20260901063021 | 83 | 147 | 2.0 | 5.0 | 0.00 | 0.00 | 0.00 | 69 | 1016.2 |
| 20260901062516 | 83 | 148 | 3.0 | 7.0 | 0.00 | 0.00 | 0.00 | 69 | 1016.1 |
| 20260901062009 | 83 | 148 | 3.0 | 7.0 | 0.00 | 0.00 | 0.00 | 69 | 1016.0 |
| 20260901061505 | 83 | 148 | 3.0 | 8.0 | 0.00 | 0.00 | 0.00 | 68 | 1016.0 |
| 20260901061459 | 83 | 140 | 3.0 | 8.0 | 0.00 | 0.00 | 0.00 | 68 | 1015.9 |
| 20260901060451 | 84 | 134 | 4.0 | 9.0 | 0.00 | 0.00 | 0.00 | 67 | 1015.9 |
| 20260901060215 | 84 | 169 | 4.0 | 9.0 | 0.00 | 0.00 | 0.00 | 67 | 1015.9 |
| 20260901055439 | 84 | 152 | 3.0 | 8.0 | 0.00 | 0.00 | 0.00 | 67 | 1015.9 |
| 20260901054933 | 84 | 150 | 4.0 | 8.0 | 0.00 | 0.00 | 0.00 | 66 | 1015.8 |
| 20260901054427 | 84 | 161 | 3.0 | 9.0 | 0.00 | 0.00 | 0.00 | 66 | 1015.8 |
| 20260901053921 | 84 | 153 | 3.0 | 9.0 | 0.00 | 0.00 | 0.00 | 66 | 1015.9 |
| 20260901053416 | 85 | 187 | 4.0 | 9.0 | 0.00 | 0.00 | 0.00 | 66 | 1015.9 |
| 20260901052916 | 85 | 176 | 4.0 | 10.0 | 0.00 | 0.00 | 0.00 | 66 | 1015.9 |
| 20260901052417 | 85 | 134 | 4.0 | 10.0 | 0.00 | 0.00 | 0.00 | 66 | 1015.9 |
| 20260901051916 | 85 | 140 | 4.0 | 10.0 | 0.00 | 0.00 | 0.00 | 66 | 1015.9 |
| 20260901051417 | 85 | 176 | 4.0 | 9.0 | 0.00 | 0.00 | 0.00 | 66 | 1015.7 |
| 20260901050916 | 85 | 179 | 4.0 | 9.0 | 0.00 | 0.00 | 0.00 | 66 | 1015.6 |
| 20260901050421 | 86 | 154 | 3.0 | 11.0 | 0.00 | 0.00 | 0.00 | 66 | 1015.7 |
| 20260901050416 | 85 | 183 | 4.0 | 11.0 | 0.00 | 0.00 | 0.00 | 66 | 1015.7 |
| 20260901045645 | 86 | 182 | 4.0 | 12.0 | 0.00 | 0.00 | 0.00 | 66 | 1015.7 |
| 20260901044914 | 86 | 129 | 4.0 | 12.0 | 0.00 | 0.00 | 0.00 | 65 | 1015.7 |
| 20260901044414 | 86 | 163 | 4.0 | 9.0 | 0.00 | 0.00 | 0.00 | 65 | 1015.6 |
| 20260901043915 | 86 | 155 | 4.0 | 9.0 | 0.00 | 0.00 | 0.00 | 65 | 1015.5 |
| 20260901043413 | 86 | 150 | 4.0 | 10.0 | 0.00 | 0.00 | 0.00 | 64 | 1015.4 |
| 20260901042907 | 86 | 186 | 4.0 | 10.0 | 0.00 | 0.00 | 0.00 | 64 | 1015.5 |
| 20260901042401 | 86 | 168 | 4.0 | 9.0 | 0.00 | 0.00 | 0.00 | 63 | 1015.5 |
| 20260901042356 | 87 | 147 | 3.0 | 9.0 | 0.00 | 0.00 | 0.00 | 63 | 1015.3 |
| 20260901041350 | 87 | 153 | 4.0 | 9.0 | 0.00 | 0.00 | 0.00 | 63 | 1015.3 |
| 20260901041113 | 87 | 154 | 4.0 | 10.0 | 0.00 | 0.00 | 0.00 | 63 | 1015.3 |
| 20260901040337 | 87 | 146 | 4.0 | 10.0 | 0.00 | 0.00 | 0.00 | 62 | 1015.4 |
| 20260901035831 | 87 | 150 | 3.0 | 9.0 | 0.00 | 0.00 | 0.00 | 62 | 1015.3 |
| 20260901035325 | 87 | 138 | 3.0 | 7.0 | 0.00 | 0.00 | 0.00 | 62 | 1015.2 |
| 20260901034818 | 87 | 159 | 4.0 | 11.0 | 0.00 | 0.00 | 0.00 | 61 | 1015.4 |
| 20260901034313 | 87 | 162 | 5.0 | 14.0 | 0.00 | 0.00 | 0.00 | 61 | 1015.3 |
| 20260901034039 | 87 | 155 | 5.0 | 14.0 | 0.00 | 0.00 | 0.00 | 60 | 1015.3 |
| 20260901033301 | 88 | 133 | 4.0 | 9.0 | 0.00 | 0.00 | 0.00 | 59 | 1015.3 |
| 20260901033256 | 88 | 144 | 5.0 | 10.0 | 0.00 | 0.00 | 0.00 | 59 | 1015.2 |
| 20260901032248 | 88 | 143 | 4.0 | 10.0 | 0.00 | 0.00 | 0.00 | 58 | 1015.1 |
| 20260901031740 | 88 | 146 | 4.0 | 9.0 | 0.00 | 0.00 | 0.00 | 57 | 1015.3 |
| 20260901031235 | 88 | 142 | 5.0 | 12.0 | 0.00 | 0.00 | 0.00 | 56 | 1015.2 |
| 20260901030959 | 89 | 114 | 6.0 | 13.0 | 0.00 | 0.00 | 0.00 | 55 | 1015.1 |
| 20260901030222 | 89 | 144 | 5.0 | 13.0 | 0.00 | 0.00 | 0.00 | 54 | 1015.0 |
| 20260901025716 | 89 | 128 | 5.0 | 13.0 | 0.00 | 0.00 | 0.00 | 53 | 1014.9 |
| 20260901025211 | 89 | 164 | 5.0 | 13.0 | 0.00 | 0.00 | 0.00 | 52 | 1014.8 |
| 20260901024704 | 89 | 150 | 5.0 | 11.0 | 0.00 | 0.00 | 0.00 | 50 | 1014.8 |
| 20260901024159 | 89 | 142 | 5.0 | 11.0 | 0.00 | 0.00 | 0.00 | 48 | 1014.7 |
| 20260901023652 | 89 | 169 | 3.0 | 11.0 | 0.00 | 0.00 | 0.00 | 47 | 1014.6 |
| 20260901023147 | 90 | 197 | 0.0 | 5.0 | 0.00 | 0.00 | 0.00 | 47 | 1014.6 |
| 20260901022641 | 90 | 110 | 0.0 | 2.0 | 0.00 | 0.00 | 0.00 | 47 | 1014.3 |
| 20260901022135 | 90 | 110 | 1.0 | 3.0 | 0.00 | 0.00 | 0.00 | 46 | 1014.2 |
| 20260901021629 | 90 | 110 | 2.0 | 4.0 | 0.00 | 0.00 | 0.00 | 46 | 1014.1 |
| 20260901021123 | 90 | 109 | 2.0 | 6.0 | 0.00 | 0.00 | 0.00 | 47 | 1014.0 |
| 20260901020617 | 91 | 106 | 3.0 | 7.0 | 0.00 | 0.00 | 0.00 | 46 | 1014.0 |
| 20260901020111 | 91 | 118 | 3.0 | 7.0 | 0.00 | 0.00 | 0.00 | 47 | 1013.8 |
| 20260901015835 | 91 | 108 | 3.0 | 8.0 | 0.00 | 0.00 | 0.00 | 47 | 1013.8 |
| 20260901015059 | 91 | 103 | 2.0 | 8.0 | 0.00 | 0.00 | 0.00 | 46 | 1013.7 |
| 20260901014823 | 91 | 133 | 2.0 | 5.0 | 0.00 | 0.00 | 0.00 | 47 | 1013.6 |
| 20260901014047 | 91 | 156 | 1.0 | 5.0 | 0.00 | 0.00 | 0.00 | 46 | 1013.6 |
| 20260901013541 | 92 | 172 | 1.0 | 6.0 | 0.00 | 0.00 | 0.00 | 45 | 1013.5 |
| 20260901013307 | 92 | 173 | 1.0 | 6.0 | 0.00 | 0.00 | 0.00 | 45 | 1013.5 |
| 20260901012801 | 92 | 143 | 1.0 | 3.0 | 0.00 | 0.00 | 0.00 | 45 | 1013.5 |
| 20260901012255 | 93 | 143 | 1.0 | 3.0 | 0.00 | 0.00 | 0.00 | 44 | 1013.4 |
| 20260901011747 | 93 | 143 | 1.0 | 3.0 | 0.00 | 0.00 | 0.00 | 44 | 1013.3 |
| 20260901011011 | 93 | 143 | 1.0 | 4.0 | 0.00 | 0.00 | 0.00 | 43 | 1013.3 |
| 20260901010505 | 93 | 136 | 2.0 | 4.0 | 0.00 | 0.00 | 0.00 | 43 | 1013.2 |
| 20260901005959 | 94 | 138 | 2.0 | 5.0 | 0.00 | 0.00 | 0.00 | 43 | 1013.1 |
| 20260901005723 | 94 | 146 | 2.0 | 8.0 | 0.00 | 0.00 | 0.00 | 43 | 1013.2 |
| 20260901004948 | 94 | 119 | 3.0 | 8.0 | 0.00 | 0.00 | 0.00 | 42 | 1013.2 |
| 20260901004943 | 94 | 107 | 2.0 | 6.0 | 0.00 | 0.00 | 0.00 | 43 | 1013.3 |
| 20260901003934 | 94 | 5 | 2.0 | 6.0 | 0.00 | 0.00 | 0.00 | 43 | 1013.3 |
| 20260901003429 | 94 | 115 | 2.0 | 7.0 | 0.00 | 0.00 | 0.00 | 43 | 1013.3 |
| 20260901003153 | 94 | 118 | 3.0 | 8.0 | 0.00 | 0.00 | 0.00 | 42 | 1013.2 |
| 20260901002417 | 95 | 118 | 3.0 | 9.0 | 0.00 | 0.00 | 0.00 | 42 | 1013.2 |
| 20260901001911 | 95 | 155 | 3.0 | 9.0 | 0.00 | 0.00 | 0.00 | 42 | 1013.1 |
| 20260901001405 | 95 | 82 | 3.0 | 8.0 | 0.00 | 0.00 | 0.00 | 42 | 1013.2 |
| 20260901000859 | 95 | 60 | 3.0 | 7.0 | 0.00 | 0.00 | 0.00 | 43 | 1013.2 |
| 20260901000353 | 95 | 133 | 3.0 | 8.0 | 0.00 | 0.00 | 0.00 | 42 | 1013.0 |
| 20260831235847 | 95 | 81 | 3.0 | 8.0 | 0.00 | 0.00 | 0.00 | 43 | 1013.0 |
| 20260831235341 | 95 | 101 | 2.0 | 7.0 | 0.00 | 0.00 | 0.00 | 44 | 1012.9 |
| 20260831234835 | 95 | 100 | 2.0 | 8.0 | 0.00 | 0.00 | 0.00 | 44 | 1013.0 |
| 20260831234328 | 95 | 90 | 2.0 | 8.0 | 0.00 | 0.00 | 0.00 | 44 | 1012.9 |
| 20260831233822 | 94 | 111 | 1.0 | 4.0 | 0.00 | 0.00 | 0.00 | 45 | 1013.0 |
| 20260831233316 | 94 | 78 | 1.0 | 4.0 | 0.00 | 0.00 | 0.00 | 44 | 1013.0 |
| 20260831232813 | 95 | 77 | 1.0 | 3.0 | 0.00 | 0.00 | 0.00 | 44 | 1013.0 |
| 20260831232314 | 95 | 77 | 2.0 | 4.0 | 0.00 | 0.00 | 0.00 | 45 | 1013.1 |
| 20260831232044 | 95 | 76 | 2.0 | 5.0 | 0.00 | 0.00 | 0.00 | 44 | 1013.1 |
| 20260831231315 | 95 | 67 | 2.0 | 6.0 | 0.00 | 0.00 | 0.00 | 44 | 1013.1 |
| 20260831230815 | 95 | 136 | 2.0 | 6.0 | 0.00 | 0.00 | 0.00 | 44 | 1013.3 |
| 20260831230314 | 95 | 130 | 2.0 | 6.0 | 0.00 | 0.00 | 0.00 | 44 | 1013.2 |
| 20260831225812 | 95 | 146 | 2.0 | 6.0 | 0.00 | 0.00 | 0.00 | 44 | 1013.3 |
| 20260831225311 | 95 | 160 | 2.0 | 7.0 | 0.00 | 0.00 | 0.00 | 45 | 1013.2 |
| 20260831224812 | 95 | 111 | 3.0 | 7.0 | 0.00 | 0.00 | 0.00 | 45 | 1013.2 |
| 20260831224313 | 95 | 125 | 3.0 | 6.0 | 0.00 | 0.00 | 0.00 | 44 | 1013.2 |
| 20260831223813 | 95 | 75 | 3.0 | 9.0 | 0.00 | 0.00 | 0.00 | 44 | 1013.3 |
| 20260831223312 | 95 | 81 | 3.0 | 9.0 | 0.00 | 0.00 | 0.00 | 45 | 1013.3 |
| 20260831222812 | 96 | 80 | 3.0 | 9.0 | 0.00 | 0.00 | 0.00 | 44 | 1013.3 |
| 20260831222313 | 96 | 37 | 3.0 | 9.0 | 0.00 | 0.00 | 0.00 | 44 | 1013.4 |
| 20260831221812 | 96 | 119 | 3.0 | 8.0 | 0.00 | 0.00 | 0.00 | 43 | 1013.3 |
| 20260831221542 | 96 | 151 | 3.0 | 8.0 | 0.00 | 0.00 | 0.00 | 43 | 1013.3 |
| 20260831221041 | 96 | 144 | 3.0 | 8.0 | 0.00 | 0.00 | 0.00 | 41 | 1013.3 |
| 20260831220308 | 96 | 145 | 2.0 | 6.0 | 0.00 | 0.00 | 0.00 | 41 | 1013.2 |
| 20260831215808 | 96 | 121 | 3.0 | 10.0 | 0.00 | 0.00 | 0.00 | 42 | 1013.2 |
| 20260831215308 | 96 | 148 | 2.0 | 10.0 | 0.00 | 0.00 | 0.00 | 41 | 1013.3 |
| 20260831214808 | 97 | 149 | 2.0 | 6.0 | 0.00 | 0.00 | 0.00 | 42 | 1013.4 |
| 20260831214308 | 97 | 149 | 3.0 | 6.0 | 0.00 | 0.00 | 0.00 | 41 | 1013.4 |
| 20260831213809 | 97 | 154 | 3.0 | 9.0 | 0.00 | 0.00 | 0.00 | 42 | 1013.6 |
| 20260831213541 | 97 | 24 | 5.0 | 15.0 | 0.00 | 0.00 | 0.00 | 42 | 1013.7 |
| 20260831212807 | 98 | 148 | 4.0 | 15.0 | 0.00 | 0.00 | 0.00 | 40 | 1013.7 |
| 20260831212309 | 98 | 143 | 2.0 | 10.0 | 0.00 | 0.00 | 0.00 | 41 | 1013.8 |
| 20260831211809 | 98 | 127 | 3.0 | 10.0 | 0.00 | 0.00 | 0.00 | 41 | 1013.8 |
| 20260831211541 | 98 | 14 | 2.0 | 10.0 | 0.00 | 0.00 | 0.00 | 41 | 1013.9 |
| 20260831210808 | 98 | 164 | 3.0 | 10.0 | 0.00 | 0.00 | 0.00 | 42 | 1014.0 |
| 20260831210308 | 98 | 170 | 3.0 | 9.0 | 0.00 | 0.00 | 0.00 | 42 | 1014.0 |
| 20260831205809 | 98 | 188 | 2.0 | 9.0 | 0.00 | 0.00 | 0.00 | 42 | 1014.2 |
| 20260831205540 | 98 | 121 | 3.0 | 9.0 | 0.00 | 0.00 | 0.00 | 41 | 1014.3 |
| 20260831204807 | 99 | 75 | 3.0 | 9.0 | 0.00 | 0.00 | 0.00 | 41 | 1014.4 |
| 20260831204307 | 98 | 124 | 3.0 | 7.0 | 0.00 | 0.00 | 0.00 | 43 | 1014.5 |
| 20260831203806 | 98 | 105 | 3.0 | 8.0 | 0.00 | 0.00 | 0.00 | 42 | 1014.6 |
| 20260831203305 | 99 | 132 | 4.0 | 12.0 | 0.00 | 0.00 | 0.00 | 42 | 1014.7 |
| 20260831202805 | 98 | 145 | 5.0 | 14.0 | 0.00 | 0.00 | 0.00 | 42 | 1014.8 |
| 20260831202306 | 99 | 130 | 3.0 | 14.0 | 0.00 | 0.00 | 0.00 | 41 | 1014.9 |
| 20260831201805 | 99 | 167 | 3.0 | 9.0 | 0.00 | 0.00 | 0.00 | 43 | 1014.9 |
| 20260831201301 | 99 | 127 | 3.0 | 9.0 | 0.00 | 0.00 | 0.00 | 43 | 1015.2 |
| 20260831200801 | 101 | 160 | 3.0 | 8.0 | 0.00 | 0.00 | 0.00 | 41 | 1015.3 |
| 20260831200301 | 101 | 130 | 3.0 | 10.0 | 0.00 | 0.00 | 0.00 | 41 | 1015.4 |
| 20260831195803 | 101 | 113 | 4.0 | 11.0 | 0.00 | 0.00 | 0.00 | 42 | 1015.4 |
| 20260831195259 | 102 | 304 | 4.0 | 11.0 | 0.00 | 0.00 | 0.00 | 41 | 1015.5 |
| 20260831194800 | 102 | 118 | 3.0 | 10.0 | 0.00 | 0.00 | 0.00 | 42 | 1015.6 |
| 20260831194531 | 101 | 146 | 4.0 | 10.0 | 0.00 | 0.00 | 0.00 | 42 | 1015.6 |
| 20260831193759 | 101 | 169 | 4.0 | 10.0 | 0.00 | 0.00 | 0.00 | 43 | 1015.6 |
| 20260831193259 | 101 | 134 | 4.0 | 14.0 | 0.00 | 0.00 | 0.00 | 42 | 1015.8 |
| 20260831192754 | 101 | 107 | 3.0 | 14.0 | 0.00 | 0.00 | 0.00 | 43 | 1015.8 |
| 20260831192248 | 101 | 201 | 3.0 | 7.0 | 0.00 | 0.00 | 0.00 | 44 | 1015.8 |
| 20260831191742 | 101 | 160 | 4.0 | 9.0 | 0.00 | 0.00 | 0.00 | 43 | 1015.9 |
| 20260831191235 | 101 | 115 | 3.0 | 9.0 | 0.00 | 0.00 | 0.00 | 44 | 1015.9 |
| 20260831190730 | 101 | 188 | 3.0 | 8.0 | 0.00 | 0.00 | 0.00 | 43 | 1016.1 |
| 20260831190224 | 100 | 145 | 3.0 | 11.0 | 0.00 | 0.00 | 0.00 | 42 | 1016.2 |
| 20260831185717 | 100 | 130 | 3.0 | 11.0 | 0.00 | 0.00 | 0.00 | 44 | 1016.4 |
| 20260831185212 | 99 | 163 | 3.0 | 9.0 | 0.00 | 0.00 | 0.00 | 45 | 1016.2 |
| 20260831184706 | 98 | 144 | 4.0 | 10.0 | 0.00 | 0.00 | 0.00 | 45 | 1016.4 |
| 20260831184159 | 98 | 207 | 3.0 | 10.0 | 0.00 | 0.00 | 0.00 | 46 | 1016.4 |
| 20260831183654 | 98 | 177 | 2.0 | 8.0 | 0.00 | 0.00 | 0.00 | 47 | 1016.3 |
| 20260831183147 | 97 | 165 | 4.0 | 9.0 | 0.00 | 0.00 | 0.00 | 47 | 1016.5 |
| 20260831182642 | 97 | 126 | 5.0 | 10.0 | 0.00 | 0.00 | 0.00 | 48 | 1016.4 |
| 20260831182135 | 96 | 119 | 4.0 | 10.0 | 0.00 | 0.00 | 0.00 | 47 | 1016.4 |
| 20260831181629 | 96 | 150 | 2.0 | 8.0 | 0.00 | 0.00 | 0.00 | 48 | 1016.3 |
| 20260831181124 | 96 | 25 | 3.0 | 9.0 | 0.00 | 0.00 | 0.00 | 52 | 1016.4 |
| 20260831180617 | 95 | 150 | 4.0 | 11.0 | 0.00 | 0.00 | 0.00 | 53 | 1016.5 |
| 20260831180112 | 95 | 130 | 3.0 | 11.0 | 0.00 | 0.00 | 0.00 | 51 | 1016.7 |
| 20260831175606 | 94 | 180 | 3.0 | 9.0 | 0.00 | 0.00 | 0.00 | 53 | 1016.7 |
| 20260831175332 | 94 | 150 | 3.0 | 9.0 | 0.00 | 0.00 | 0.00 | 52 | 1016.9 |
| 20260831174553 | 94 | 152 | 3.0 | 11.0 | 0.00 | 0.00 | 0.00 | 52 | 1017.0 |
| 20260831174320 | 94 | 150 | 4.0 | 11.0 | 0.00 | 0.00 | 0.00 | 51 | 1017.0 |
| 20260831173542 | 94 | 131 | 4.0 | 10.0 | 0.00 | 0.00 | 0.00 | 52 | 1017.0 |
| 20260831173036 | 94 | 132 | 4.0 | 10.0 | 0.00 | 0.00 | 0.00 | 52 | 1017.1 |
| 20260831172530 | 93 | 163 | 4.0 | 11.0 | 0.00 | 0.00 | 0.00 | 54 | 1017.3 |
| 20260831172023 | 93 | 123 | 4.0 | 11.0 | 0.00 | 0.00 | 0.00 | 54 | 1017.3 |
| 20260831171518 | 93 | 178 | 3.0 | 10.0 | 0.00 | 0.00 | 0.00 | 57 | 1017.3 |
| 20260831171011 | 92 | 182 | 3.0 | 10.0 | 0.00 | 0.00 | 0.00 | 56 | 1017.6 |
| 20260831170506 | 92 | 142 | 3.0 | 8.0 | 0.00 | 0.00 | 0.00 | 58 | 1017.4 |
| 20260831170001 | 91 | 150 | 4.0 | 8.0 | 0.00 | 0.00 | 0.00 | 58 | 1017.4 |
| 20260831165453 | 91 | 127 | 3.0 | 8.0 | 0.00 | 0.00 | 0.00 | 59 | 1017.6 |
| 20260831165219 | 91 | 184 | 2.0 | 11.0 | 0.00 | 0.00 | 0.00 | 61 | 1017.6 |
| 20260831164442 | 90 | 194 | 1.0 | 11.0 | 0.00 | 0.00 | 0.00 | 62 | 1017.8 |
| 20260831163935 | 90 | 189 | 1.0 | 4.0 | 0.00 | 0.00 | 0.00 | 62 | 1017.8 |
| 20260831163430 | 89 | 182 | 2.0 | 7.0 | 0.00 | 0.00 | 0.00 | 63 | 1017.7 |
| 20260831162923 | 89 | 182 | 3.0 | 8.0 | 0.00 | 0.00 | 0.00 | 63 | 1017.7 |
| 20260831162418 | 89 | 150 | 3.0 | 8.0 | 0.00 | 0.00 | 0.00 | 63 | 1017.7 |
| 20260831161912 | 89 | 134 | 2.0 | 8.0 | 0.00 | 0.00 | 0.00 | 63 | 1017.7 |
| 20260831161406 | 89 | 137 | 2.0 | 8.0 | 0.00 | 0.00 | 0.00 | 64 | 1017.6 |
| 20260831160900 | 88 | 187 | 3.0 | 9.0 | 0.00 | 0.00 | 0.00 | 65 | 1017.6 |
| 20260831160354 | 88 | 183 | 2.0 | 9.0 | 0.00 | 0.00 | 0.00 | 66 | 1017.6 |
| 20260831155848 | 88 | 183 | 2.0 | 7.0 | 0.00 | 0.00 | 0.00 | 67 | 1017.6 |
| 20260831155341 | 88 | 176 | 3.0 | 8.0 | 0.00 | 0.00 | 0.00 | 67 | 1017.6 |
| 20260831155113 | 88 | 176 | 4.0 | 9.0 | 0.00 | 0.00 | 0.00 | 67 | 1017.6 |
| 20260831154342 | 88 | 155 | 3.0 | 9.0 | 0.00 | 0.00 | 0.00 | 67 | 1017.4 |
| 20260831153842 | 87 | 150 | 3.0 | 8.0 | 0.00 | 0.00 | 0.00 | 69 | 1017.4 |
| 20260831153341 | 87 | 174 | 3.0 | 8.0 | 0.00 | 0.00 | 0.00 | 70 | 1017.4 |
| 20260831152841 | 87 | 153 | 3.0 | 7.0 | 0.00 | 0.00 | 0.00 | 71 | 1017.4 |
| 20260831152341 | 86 | 126 | 2.0 | 7.0 | 0.00 | 0.00 | 0.00 | 73 | 1017.3 |
| 20260831151841 | 85 | 148 | 1.0 | 5.0 | 0.00 | 0.00 | 0.00 | 76 | 1017.3 |
| 20260831151341 | 84 | 231 | 2.0 | 6.0 | 0.00 | 0.00 | 0.00 | 78 | 1017.3 |
| 20260831150842 | 84 | 155 | 1.0 | 7.0 | 0.00 | 0.00 | 0.00 | 79 | 1017.3 |
| 20260831150342 | 83 | 184 | 1.0 | 7.0 | 0.00 | 0.00 | 0.00 | 79 | 1017.3 |
| 20260831145841 | 83 | 194 | 1.0 | 7.0 | 0.00 | 0.00 | 0.00 | 80 | 1017.4 |
| 20260831145613 | 82 | 139 | 3.0 | 11.0 | 0.00 | 0.00 | 0.00 | 81 | 1017.3 |
| 20260831144841 | 82 | 138 | 3.0 | 11.0 | 0.00 | 0.00 | 0.00 | 82 | 1017.2 |
| 20260831144340 | 82 | 175 | 2.0 | 9.0 | 0.00 | 0.00 | 0.00 | 84 | 1017.2 |
| 20260831143838 | 81 | 186 | 2.0 | 9.0 | 0.00 | 0.00 | 0.00 | 84 | 1017.1 |
| 20260831143611 | 80 | 159 | 1.0 | 6.0 | 0.00 | 0.00 | 0.00 | 85 | 1017.1 |
| 20260831142840 | 80 | 158 | 1.0 | 6.0 | 0.00 | 0.00 | 0.00 | 86 | 1017.0 |
| 20260831142336 | 80 | 144 | 1.0 | 8.0 | 0.00 | 0.00 | 0.00 | 86 | 1017.1 |
| 20260831141840 | 80 | 178 | 1.0 | 5.0 | 0.00 | 0.00 | 0.00 | 87 | 1017.0 |
| 20260831141835 | 80 | 144 | 1.0 | 8.0 | 0.00 | 0.00 | 0.00 | 86 | 1017.0 |
| 20260831140835 | 79 | 186 | 1.0 | 4.0 | 0.00 | 0.00 | 0.00 | 87 | 1016.8 |
| 20260831140336 | 79 | 179 | 1.0 | 6.0 | 0.00 | 0.00 | 0.00 | 87 | 1016.9 |
| 20260831135834 | 79 | 175 | 1.0 | 6.0 | 0.00 | 0.00 | 0.00 | 87 | 1016.8 |
| 20260831135336 | 79 | 190 | 1.0 | 5.0 | 0.00 | 0.00 | 0.00 | 87 | 1016.8 |
| 20260831134834 | 79 | 178 | 0.0 | 4.0 | 0.00 | 0.00 | 0.00 | 87 | 1016.8 |
| 20260831134336 | 79 | 180 | 0.0 | 2.0 | 0.00 | 0.00 | 0.00 | 87 | 1016.8 |
| 20260831133832 | 79 | 180 | 0.0 | 4.0 | 0.00 | 0.00 | 0.00 | 87 | 1016.7 |
| 20260831133332 | 78 | 180 | 0.0 | 4.0 | 0.00 | 0.00 | 0.00 | 87 | 1016.6 |
| 20260831132831 | 78 | 180 | 0.0 | 0.0 | 0.00 | 0.00 | 0.00 | 87 | 1016.6 |
| 20260831132331 | 78 | 180 | 0.0 | 0.0 | 0.00 | 0.00 | 0.00 | 87 | 1016.5 |
| 20260831131831 | 78 | 180 | 0.0 | 0.0 | 0.00 | 0.00 | 0.00 | 87 | 1016.5 |
| 20260831131330 | 78 | 180 | 0.0 | 0.0 | 0.00 | 0.00 | 0.00 | 87 | 1016.4 |
| 20260831130831 | 78 | 180 | 0.0 | 0.0 | 0.00 | 0.00 | 0.00 | 87 | 1016.4 |
| 20260831130332 | 78 | 180 | 0.0 | 0.0 | 0.00 | 0.00 | 0.00 | 87 | 1016.3 |
| 20260831125831 | 78 | 180 | 0.0 | 0.0 | 0.00 | 0.00 | 0.00 | 86 | 1016.2 |
| 20260831125326 | 77 | 180 | 0.0 | 0.0 | 0.00 | 0.00 | 0.00 | 86 | 1016.2 |
| 20260831124827 | 77 | 180 | 0.0 | 0.0 | 0.00 | 0.00 | 0.00 | 86 | 1016.2 |
| 20260831124557 | 77 | 180 | 0.0 | 0.0 | 0.00 | 0.00 | 0.00 | 86 | 1016.2 |
| 20260831123823 | 77 | 180 | 0.0 | 0.0 | 0.00 | 0.00 | 0.00 | 85 | 1016.2 |
| 20260831123552 | 77 | 180 | 0.0 | 0.0 | 0.00 | 0.00 | 0.00 | 85 | 1016.1 |
| 20260831122819 | 77 | 180 | 0.0 | 0.0 | 0.00 | 0.00 | 0.00 | 85 | 1016.1 |
| 20260831122317 | 77 | 180 | 0.0 | 0.0 | 0.00 | 0.00 | 0.00 | 85 | 1016.1 |
| 20260831121818 | 78 | 180 | 0.0 | 0.0 | 0.00 | 0.00 | 0.00 | 85 | 1016.2 |
| 20260831121318 | 78 | 180 | 0.0 | 0.0 | 0.00 | 0.00 | 0.00 | 85 | 1016.1 |
| 20260831120816 | 78 | 180 | 0.0 | 0.0 | 0.00 | 0.00 | 0.00 | 85 | 1016.0 |
| 20260831120314 | 78 | 180 | 0.0 | 0.0 | 0.00 | 0.00 | 0.00 | 85 | 1015.9 |
| 20260831120041 | 78 | 180 | 0.0 | 0.0 | 0.00 | 0.00 | 0.00 | 85 | 1015.9 |
| 20260831115310 | 78 | 180 | 0.0 | 0.0 | 0.00 | 0.00 | 0.00 | 85 | 1015.9 |
| 20260831114808 | 78 | 180 | 0.0 | 0.0 | 0.00 | 0.00 | 0.00 | 85 | 1015.9 |
| 20260831114305 | 78 | 180 | 0.0 | 0.0 | 0.00 | 0.00 | 0.00 | 85 | 1016.0 |
| 20260831113806 | 78 | 180 | 0.0 | 0.0 | 0.00 | 0.00 | 0.00 | 85 | 1016.1 |
| 20260831113304 | 78 | 180 | 0.0 | 0.0 | 0.00 | 0.00 | 0.00 | 85 | 1016.2 |
| 20260831112800 | 78 | 180 | 0.0 | 0.0 | 0.00 | 0.00 | 0.00 | 85 | 1016.2 |
| 20260831112301 | 78 | 180 | 0.0 | 0.0 | 0.00 | 0.00 | 0.00 | 85 | 1016.2 |
| 20260831111755 | 78 | 180 | 0.0 | 0.0 | 0.00 | 0.00 | 0.00 | 85 | 1016.1 |
| 20260831111249 | 78 | 180 | 0.0 | 0.0 | 0.00 | 0.00 | 0.00 | 85 | 1016.1 |
| 20260831111244 | 78 | 180 | 0.0 | 0.0 | 0.00 | 0.00 | 0.00 | 85 | 1016.1 |
| 20260831110509 | 78 | 180 | 0.0 | 0.0 | 0.00 | 0.00 | 0.00 | 85 | 1016.0 |
| 20260831105731 | 78 | 180 | 0.0 | 0.0 | 0.00 | 0.00 | 0.00 | 85 | 1016.0 |
| 20260831105225 | 78 | 180 | 0.0 | 0.0 | 0.00 | 0.00 | 0.00 | 85 | 1016.0 |